| time (UTC) | temp C | wind direction | speed KPH | gust KPH | rain 1hr cm | rain 24hr cm | rain mn cm | humidity % | barometer mb |
| 20260509215003 | 20 | 273 | 1.6 | 6.4 | 0.00 | 0.00 | 0.00 | 33 | 1019.9 |
| 20260509214503 | 20 | 296 | 1.6 | 8.0 | 0.00 | 0.00 | 0.00 | 36 | 1019.9 |
| 20260509214003 | 20 | 285 | 1.6 | 8.0 | 0.00 | 0.00 | 0.00 | 35 | 1020.0 |
| 20260509213503 | 20 | 355 | 1.6 | 4.8 | 0.00 | 0.00 | 0.00 | 35 | 1019.9 |
| 20260509213216 | 20 | 337 | 1.6 | 4.8 | 0.00 | 0.00 | 0.00 | 36 | 1020.0 |
| 20260509212503 | 20 | 355 | 1.6 | 6.4 | 0.00 | 0.00 | 0.00 | 37 | 1020.1 |
| 20260509212003 | 20 | 45 | 1.6 | 6.4 | 0.00 | 0.00 | 0.00 | 36 | 1020.2 |
| 20260509211503 | 20 | 32 | 1.6 | 6.4 | 0.00 | 0.00 | 0.00 | 33 | 1020.2 |
| 20260509211003 | 20 | 346 | 1.6 | 6.4 | 0.00 | 0.00 | 0.00 | 36 | 1020.3 |
| 20260509210503 | 20 | 340 | 1.6 | 9.7 | 0.00 | 0.00 | 0.00 | 34 | 1020.3 |
| 20260509210003 | 20 | 333 | 1.6 | 9.7 | 0.00 | 0.00 | 0.00 | 36 | 1020.4 |
| 20260509205503 | 20 | 326 | 1.6 | 8.0 | 0.00 | 0.00 | 0.00 | 38 | 1020.4 |
| 20260509205003 | 20 | 14 | 1.6 | 8.0 | 0.00 | 0.00 | 0.00 | 39 | 1020.5 |
| 20260509204503 | 20 | 2 | 3.2 | 8.0 | 0.00 | 0.00 | 0.00 | 37 | 1020.5 |
| 20260509204009 | 20 | 311 | 3.2 | 8.0 | 0.00 | 0.00 | 0.00 | 38 | 1020.5 |
| 20260509203503 | 20 | 326 | 1.6 | 8.0 | 0.00 | 0.00 | 0.00 | 39 | 1020.6 |
| 20260509203003 | 20 | 321 | 1.6 | 8.0 | 0.00 | 0.00 | 0.00 | 39 | 1020.6 |
| 20260509202503 | 20 | 272 | 1.6 | 8.0 | 0.00 | 0.00 | 0.00 | 41 | 1020.6 |
| 20260509202003 | 19 | 264 | 1.6 | 8.0 | 0.00 | 0.00 | 0.00 | 38 | 1020.7 |
| 20260509201503 | 20 | 258 | 1.6 | 8.0 | 0.00 | 0.00 | 0.00 | 40 | 1020.7 |
| 20260509201003 | 20 | 234 | 1.6 | 4.8 | 0.00 | 0.00 | 0.00 | 40 | 1020.7 |
| 20260509200717 | 19 | 222 | 1.6 | 11.3 | 0.00 | 0.00 | 0.00 | 41 | 1020.8 |
| 20260509200004 | 19 | 171 | 3.2 | 11.3 | 0.00 | 0.00 | 0.00 | 40 | 1020.9 |
| 20260509195503 | 18 | 205 | 3.2 | 11.3 | 0.00 | 0.00 | 0.00 | 39 | 1020.9 |
| 20260509195003 | 18 | 220 | 3.2 | 14.5 | 0.00 | 0.00 | 0.00 | 43 | 1021.0 |
| 20260509194503 | 18 | 213 | 3.2 | 14.5 | 0.00 | 0.00 | 0.00 | 42 | 1020.9 |
| 20260509194003 | 18 | 231 | 4.8 | 8.0 | 0.00 | 0.00 | 0.00 | 40 | 1021.0 |
| 20260509193503 | 18 | 224 | 4.8 | 14.5 | 0.00 | 0.00 | 0.00 | 40 | 1021.1 |
| 20260509193003 | 18 | 215 | 3.2 | 16.1 | 0.00 | 0.00 | 0.00 | 38 | 1021.1 |
| 20260509192503 | 19 | 221 | 1.6 | 16.1 | 0.00 | 0.00 | 0.00 | 36 | 1021.2 |
| 20260509192003 | 18 | 247 | 3.2 | 8.0 | 0.00 | 0.00 | 0.00 | 40 | 1021.3 |
| 20260509191503 | 18 | 241 | 3.2 | 8.0 | 0.00 | 0.00 | 0.00 | 40 | 1021.3 |
| 20260509191003 | 18 | 238 | 3.2 | 11.3 | 0.00 | 0.00 | 0.00 | 39 | 1021.4 |
| 20260509190503 | 18 | 216 | 3.2 | 12.9 | 0.00 | 0.00 | 0.00 | 40 | 1021.4 |
| 20260509190004 | 18 | 210 | 3.2 | 12.9 | 0.00 | 0.00 | 0.00 | 41 | 1021.4 |
| 20260509185503 | 18 | 223 | 4.8 | 11.3 | 0.00 | 0.00 | 0.00 | 45 | 1021.5 |
| 20260509185003 | 17 | 231 | 4.8 | 16.1 | 0.00 | 0.00 | 0.00 | 45 | 1021.4 |
| 20260509184503 | 17 | 243 | 4.8 | 16.1 | 0.00 | 0.00 | 0.00 | 46 | 1021.5 |
| 20260509184003 | 17 | 245 | 4.8 | 11.3 | 0.00 | 0.00 | 0.00 | 47 | 1021.5 |
| 20260509183503 | 17 | 232 | 4.8 | 12.9 | 0.00 | 0.00 | 0.00 | 48 | 1021.5 |
| 20260509183003 | 17 | 226 | 4.8 | 16.1 | 0.00 | 0.00 | 0.00 | 44 | 1021.5 |
| 20260509182503 | 17 | 225 | 4.8 | 16.1 | 0.00 | 0.00 | 0.00 | 47 | 1021.5 |
| 20260509182217 | 17 | 226 | 4.8 | 12.9 | 0.00 | 0.00 | 0.00 | 48 | 1021.5 |
| 20260509181503 | 17 | 228 | 3.2 | 12.9 | 0.00 | 0.00 | 0.00 | 47 | 1021.5 |
| 20260509181003 | 17 | 229 | 3.2 | 9.7 | 0.00 | 0.00 | 0.00 | 49 | 1021.5 |
| 20260509180718 | 17 | 224 | 3.2 | 11.3 | 0.00 | 0.00 | 0.00 | 49 | 1021.5 |
| 20260509180003 | 17 | 228 | 3.2 | 11.3 | 0.00 | 0.00 | 0.00 | 48 | 1021.5 |
| 20260509175503 | 17 | 214 | 3.2 | 11.3 | 0.00 | 0.00 | 0.00 | 52 | 1021.5 |
| 20260509175003 | 17 | 219 | 3.2 | 11.3 | 0.00 | 0.00 | 0.00 | 50 | 1021.6 |
| 20260509174503 | 16 | 234 | 3.2 | 11.3 | 0.00 | 0.00 | 0.00 | 51 | 1021.5 |
| 20260509174217 | 16 | 237 | 3.2 | 11.3 | 0.00 | 0.00 | 0.00 | 53 | 1021.6 |
| 20260509173718 | 16 | 234 | 3.2 | 16.1 | 0.00 | 0.00 | 0.00 | 53 | 1021.6 |
| 20260509173217 | 16 | 235 | 3.2 | 16.1 | 0.00 | 0.00 | 0.00 | 50 | 1021.5 |
| 20260509172503 | 16 | 247 | 4.8 | 11.3 | 0.00 | 0.00 | 0.00 | 54 | 1021.5 |
| 20260509172003 | 15 | 225 | 6.4 | 16.1 | 0.00 | 0.00 | 0.00 | 54 | 1021.5 |
| 20260509171503 | 15 | 228 | 6.4 | 16.1 | 0.00 | 0.00 | 0.00 | 53 | 1021.5 |
| 20260509171003 | 15 | 224 | 4.8 | 14.5 | 0.00 | 0.00 | 0.00 | 53 | 1021.5 |
| 20260509170718 | 15 | 219 | 4.8 | 14.5 | 0.00 | 0.00 | 0.00 | 54 | 1021.5 |
| 20260509170003 | 15 | 230 | 4.8 | 11.3 | 0.00 | 0.00 | 0.00 | 54 | 1021.5 |
| 20260509165503 | 15 | 238 | 4.8 | 11.3 | 0.00 | 0.00 | 0.00 | 51 | 1021.6 |
| 20260509165003 | 15 | 234 | 4.8 | 12.9 | 0.00 | 0.00 | 0.00 | 52 | 1021.5 |
| 20260509164503 | 15 | 226 | 4.8 | 12.9 | 0.00 | 0.00 | 0.00 | 53 | 1021.5 |
| 20260509164003 | 15 | 229 | 4.8 | 12.9 | 0.00 | 0.00 | 0.00 | 53 | 1021.5 |
| 20260509163503 | 15 | 233 | 4.8 | 14.5 | 0.00 | 0.00 | 0.00 | 51 | 1021.4 |
| 20260509163003 | 15 | 233 | 3.2 | 14.5 | 0.00 | 0.00 | 0.00 | 49 | 1021.4 |
| 20260509162503 | 15 | 231 | 3.2 | 12.9 | 0.00 | 0.00 | 0.00 | 53 | 1021.4 |
| 20260509162003 | 15 | 225 | 4.8 | 12.9 | 0.00 | 0.00 | 0.00 | 51 | 1021.5 |
| 20260509161503 | 15 | 210 | 4.8 | 9.7 | 0.00 | 0.00 | 0.00 | 50 | 1021.6 |
| 20260509161218 | 15 | 217 | 4.8 | 9.7 | 0.00 | 0.00 | 0.00 | 51 | 1021.5 |
| 20260509160503 | 15 | 211 | 6.4 | 12.9 | 0.00 | 0.00 | 0.00 | 50 | 1021.5 |
| 20260509160218 | 15 | 206 | 4.8 | 12.9 | 0.00 | 0.00 | 0.00 | 52 | 1021.5 |
| 20260509155503 | 14 | 207 | 4.8 | 16.1 | 0.00 | 0.00 | 0.00 | 50 | 1021.5 |
| 20260509155003 | 14 | 205 | 4.8 | 16.1 | 0.00 | 0.00 | 0.00 | 52 | 1021.4 |
| 20260509154503 | 14 | 216 | 4.8 | 11.3 | 0.00 | 0.00 | 0.00 | 53 | 1021.4 |
| 20260509154218 | 14 | 221 | 4.8 | 12.9 | 0.00 | 0.00 | 0.00 | 53 | 1021.4 |
| 20260509153503 | 13 | 207 | 4.8 | 12.9 | 0.00 | 0.00 | 0.00 | 54 | 1021.3 |
| 20260509153218 | 13 | 214 | 3.2 | 11.3 | 0.00 | 0.00 | 0.00 | 53 | 1021.3 |
| 20260509152503 | 13 | 244 | 1.6 | 9.7 | 0.00 | 0.00 | 0.00 | 53 | 1021.3 |
| 20260509152003 | 13 | 269 | 0.0 | 8.0 | 0.00 | 0.00 | 0.00 | 54 | 1021.3 |
| 20260509151503 | 13 | 0 | 0.0 | 3.2 | 0.00 | 0.00 | 0.00 | 58 | 1021.3 |
| 20260509151003 | 13 | 0 | 0.0 | 3.2 | 0.00 | 0.00 | 0.00 | 60 | 1021.3 |
| 20260509150503 | 13 | 0 | 0.0 | 3.2 | 0.00 | 0.00 | 0.00 | 59 | 1021.4 |
| 20260509150003 | 13 | 0 | 0.0 | 1.6 | 0.00 | 0.00 | 0.00 | 59 | 1021.3 |
| 20260509145503 | 13 | 0 | 0.0 | 1.6 | 0.00 | 0.00 | 0.00 | 59 | 1021.3 |
| 20260509145003 | 13 | 0 | 0.0 | 3.2 | 0.00 | 0.00 | 0.00 | 59 | 1021.3 |
| 20260509144503 | 13 | 0 | 0.0 | 3.2 | 0.00 | 0.00 | 0.00 | 60 | 1021.3 |
| 20260509144003 | 12 | 0 | 0.0 | 3.2 | 0.00 | 0.00 | 0.00 | 62 | 1021.3 |
| 20260509143503 | 12 | 0 | 0.0 | 3.2 | 0.00 | 0.00 | 0.00 | 60 | 1021.3 |
| 20260509143003 | 12 | 0 | 0.0 | 3.2 | 0.00 | 0.00 | 0.00 | 62 | 1021.2 |
| 20260509142717 | 12 | 0 | 0.0 | 3.2 | 0.00 | 0.00 | 0.00 | 63 | 1021.1 |
| 20260509142003 | 12 | 89 | 0.0 | 1.6 | 0.00 | 0.00 | 0.00 | 63 | 1021.1 |
| 20260509141503 | 12 | 210 | 1.6 | 1.6 | 0.00 | 0.00 | 0.00 | 61 | 1021.0 |
| 20260509141003 | 11 | 224 | 1.6 | 6.4 | 0.00 | 0.00 | 0.00 | 64 | 1021.0 |
| 20260509140503 | 11 | 224 | 3.2 | 6.4 | 0.00 | 0.00 | 0.00 | 65 | 1020.9 |
| 20260509140003 | 10 | 227 | 3.2 | 8.0 | 0.00 | 0.00 | 0.00 | 68 | 1020.9 |
| 20260509135503 | 10 | 234 | 3.2 | 8.0 | 0.00 | 0.00 | 0.00 | 69 | 1020.9 |
| 20260509135003 | 10 | 239 | 1.6 | 6.4 | 0.00 | 0.00 | 0.00 | 69 | 1020.9 |
| 20260509134503 | 10 | 237 | 0.0 | 4.8 | 0.00 | 0.00 | 0.00 | 70 | 1020.8 |
| 20260509134003 | 9 | 0 | 0.0 | 3.2 | 0.00 | 0.00 | 0.00 | 71 | 1020.7 |
| 20260509133503 | 9 | 166 | 0.0 | 1.6 | 0.00 | 0.00 | 0.00 | 72 | 1020.7 |
| 20260509133004 | 8 | 163 | 1.6 | 6.4 | 0.00 | 0.00 | 0.00 | 74 | 1020.8 |
| 20260509132503 | 8 | 155 | 3.2 | 6.4 | 0.00 | 0.00 | 0.00 | 76 | 1020.7 |
| 20260509132003 | 7 | 152 | 3.2 | 6.4 | 0.00 | 0.00 | 0.00 | 77 | 1020.6 |
| 20260509131503 | 8 | 161 | 3.2 | 6.4 | 0.00 | 0.00 | 0.00 | 75 | 1020.6 |
| 20260509131003 | 8 | 200 | 4.8 | 8.0 | 0.00 | 0.00 | 0.00 | 74 | 1020.5 |
| 20260509130503 | 8 | 210 | 4.8 | 8.0 | 0.00 | 0.00 | 0.00 | 75 | 1020.4 |
| 20260509130003 | 7 | 207 | 4.8 | 9.7 | 0.00 | 0.00 | 0.00 | 76 | 1020.4 |
| 20260509125503 | 6 | 189 | 3.2 | 9.7 | 0.00 | 0.00 | 0.00 | 80 | 1020.3 |
| 20260509125003 | 6 | 171 | 3.2 | 6.4 | 0.00 | 0.00 | 0.00 | 80 | 1020.3 |
| 20260509124503 | 6 | 160 | 1.6 | 6.4 | 0.00 | 0.00 | 0.00 | 82 | 1020.3 |
| 20260509124003 | 5 | 149 | 0.0 | 6.4 | 0.00 | 0.00 | 0.00 | 80 | 1020.3 |
| 20260509123503 | 6 | 0 | 4.8 | 4.8 | 0.00 | 0.00 | 0.00 | 79 | 1020.2 |
| 20260509123003 | 6 | 0 | 1.6 | 1.6 | 0.00 | 0.00 | 0.00 | 78 | 1020.2 |
| 20260509122503 | 6 | 0 | 1.6 | 1.6 | 0.00 | 0.00 | 0.00 | 77 | 1020.2 |
| 20260509122003 | 6 | 0 | 0.0 | 1.6 | 0.00 | 0.00 | 0.00 | 77 | 1020.2 |
| 20260509121718 | 6 | 141 | 0.0 | 1.6 | 0.00 | 0.00 | 0.00 | 76 | 1020.1 |
| 20260509121003 | 6 | 142 | 1.6 | 3.2 | 0.00 | 0.00 | 0.00 | 77 | 1020.1 |
| 20260509120503 | 6 | 145 | 3.2 | 6.4 | 0.00 | 0.00 | 0.00 | 75 | 1020.0 |
| 20260509120003 | 7 | 145 | 1.6 | 6.4 | 0.00 | 0.00 | 0.00 | 73 | 1019.9 |
| 20260509115718 | 7 | 148 | 0.0 | 6.4 | 0.00 | 0.00 | 0.00 | 71 | 1019.9 |
| 20260509115217 | 8 | 0 | 0.0 | 4.8 | 0.00 | 0.00 | 0.00 | 69 | 1019.8 |
| 20260509114503 | 8 | 233 | 1.6 | 1.6 | 0.00 | 0.00 | 0.00 | 67 | 1019.8 |
| 20260509114003 | 8 | 228 | 1.6 | 4.8 | 0.00 | 0.00 | 0.00 | 66 | 1019.9 |
| 20260509113503 | 9 | 223 | 1.6 | 6.4 | 0.00 | 0.00 | 0.00 | 66 | 1019.9 |
| 20260509113003 | 9 | 225 | 1.6 | 6.4 | 0.00 | 0.00 | 0.00 | 67 | 1019.9 |
| 20260509112503 | 8 | 233 | 0.0 | 6.4 | 0.00 | 0.00 | 0.00 | 68 | 1019.9 |
| 20260509112216 | 8 | 229 | 0.0 | 6.4 | 0.00 | 0.00 | 0.00 | 68 | 1019.9 |
| 20260509111503 | 7 | 0 | 0.0 | 3.2 | 0.00 | 0.00 | 0.00 | 68 | 1019.8 |
| 20260509111003 | 8 | 226 | 0.0 | 4.8 | 0.00 | 0.00 | 0.00 | 67 | 1019.8 |
| 20260509110503 | 8 | 225 | 0.0 | 4.8 | 0.00 | 0.00 | 0.00 | 67 | 1019.8 |
| 20260509110003 | 8 | 0 | 9.7 | 9.7 | 0.00 | 0.00 | 0.00 | 68 | 1019.7 |
| 20260509105503 | 7 | 0 | 9.7 | 9.7 | 0.00 | 0.00 | 0.00 | 70 | 1019.8 |
| 20260509105003 | 7 | 0 | 1.6 | 1.6 | 0.00 | 0.00 | 0.00 | 69 | 1019.7 |
| 20260509104503 | 7 | 0 | 1.6 | 1.6 | 0.00 | 0.00 | 0.00 | 69 | 1019.6 |
| 20260509104003 | 7 | 0 | 0.0 | 1.6 | 0.00 | 0.00 | 0.00 | 70 | 1019.6 |
| 20260509103503 | 7 | 201 | 0.0 | 1.6 | 0.00 | 0.00 | 0.00 | 70 | 1019.6 |
| 20260509103003 | 7 | 0 | 1.6 | 1.6 | 0.00 | 0.00 | 0.00 | 71 | 1019.5 |
| 20260509102503 | 6 | 152 | 3.2 | 4.8 | 0.00 | 0.00 | 0.00 | 72 | 1019.5 |
| 20260509102218 | 6 | 149 | 3.2 | 6.4 | 0.00 | 0.00 | 0.00 | 72 | 1019.5 |
| 20260509101503 | 6 | 147 | 4.8 | 6.4 | 0.00 | 0.00 | 0.00 | 72 | 1019.5 |
| 20260509101003 | 6 | 146 | 4.8 | 8.0 | 0.00 | 0.00 | 0.00 | 69 | 1019.4 |
| 20260509100503 | 7 | 168 | 6.4 | 9.7 | 0.00 | 0.00 | 0.00 | 65 | 1019.4 |
| 20260509100218 | 8 | 190 | 6.4 | 9.7 | 0.00 | 0.00 | 0.00 | 61 | 1019.4 |
| 20260509095503 | 10 | 215 | 4.8 | 12.9 | 0.00 | 0.00 | 0.00 | 59 | 1019.3 |
| 20260509095003 | 9 | 212 | 3.2 | 12.9 | 0.00 | 0.00 | 0.00 | 61 | 1019.3 |
| 20260509094503 | 8 | 188 | 3.2 | 8.0 | 0.00 | 0.00 | 0.00 | 62 | 1019.2 |
| 20260509094218 | 8 | 188 | 3.2 | 8.0 | 0.00 | 0.00 | 0.00 | 61 | 1019.2 |
| 20260509093503 | 9 | 206 | 6.4 | 6.4 | 0.00 | 0.00 | 0.00 | 59 | 1019.1 |
| 20260509093218 | 9 | 209 | 6.4 | 9.7 | 0.00 | 0.00 | 0.00 | 59 | 1019.0 |
| 20260509092503 | 8 | 209 | 4.8 | 9.7 | 0.00 | 0.00 | 0.00 | 59 | 1019.0 |
| 20260509092003 | 9 | 208 | 4.8 | 8.0 | 0.00 | 0.00 | 0.00 | 58 | 1019.0 |
| 20260509091503 | 9 | 210 | 4.8 | 8.0 | 0.00 | 0.00 | 0.00 | 57 | 1019.0 |
| 20260509091003 | 9 | 215 | 3.2 | 9.7 | 0.00 | 0.00 | 0.00 | 57 | 1019.0 |
| 20260509090503 | 9 | 222 | 1.6 | 9.7 | 0.00 | 0.00 | 0.00 | 57 | 1019.0 |
| 20260509090003 | 9 | 228 | 3.2 | 8.0 | 0.00 | 0.00 | 0.00 | 56 | 1019.0 |
| 20260509085503 | 10 | 220 | 4.8 | 11.3 | 0.00 | 0.00 | 0.00 | 55 | 1018.9 |
| 20260509085003 | 10 | 215 | 6.4 | 11.3 | 0.00 | 0.00 | 0.00 | 55 | 1018.8 |
| 20260509084503 | 10 | 212 | 6.4 | 11.3 | 0.00 | 0.00 | 0.00 | 54 | 1018.8 |
| 20260509084003 | 10 | 212 | 6.4 | 11.3 | 0.00 | 0.00 | 0.00 | 53 | 1018.7 |
| 20260509083717 | 10 | 211 | 6.4 | 11.3 | 0.00 | 0.00 | 0.00 | 52 | 1018.7 |
| 20260509083003 | 10 | 211 | 8.0 | 12.9 | 0.00 | 0.00 | 0.00 | 51 | 1018.7 |
| 20260509082503 | 10 | 211 | 6.4 | 12.9 | 0.00 | 0.00 | 0.00 | 51 | 1018.7 |
| 20260509082003 | 10 | 211 | 6.4 | 12.9 | 0.00 | 0.00 | 0.00 | 51 | 1018.6 |
| 20260509081716 | 10 | 210 | 8.0 | 12.9 | 0.00 | 0.00 | 0.00 | 51 | 1018.5 |
| 20260509081003 | 10 | 209 | 8.0 | 12.9 | 0.00 | 0.00 | 0.00 | 50 | 1018.5 |
| 20260509080503 | 11 | 211 | 8.0 | 14.5 | 0.00 | 0.00 | 0.00 | 50 | 1018.5 |
| 20260509080004 | 11 | 213 | 8.0 | 14.5 | 0.00 | 0.00 | 0.00 | 49 | 1018.5 |
| 20260509075503 | 11 | 208 | 6.4 | 14.5 | 0.00 | 0.00 | 0.00 | 49 | 1018.5 |
| 20260509075003 | 11 | 203 | 3.2 | 12.9 | 0.00 | 0.00 | 0.00 | 49 | 1018.4 |
| 20260509074503 | 11 | 205 | 4.8 | 9.7 | 0.00 | 0.00 | 0.00 | 48 | 1018.4 |
| 20260509074217 | 11 | 210 | 4.8 | 11.3 | 0.00 | 0.00 | 0.00 | 48 | 1018.4 |
| 20260509073503 | 11 | 213 | 4.8 | 11.3 | 0.00 | 0.00 | 0.00 | 48 | 1018.3 |
| 20260509073003 | 11 | 210 | 8.0 | 11.3 | 0.00 | 0.00 | 0.00 | 47 | 1018.3 |
| 20260509072503 | 11 | 210 | 9.7 | 14.5 | 0.00 | 0.00 | 0.00 | 48 | 1018.1 |
| 20260509072003 | 11 | 210 | 9.7 | 16.1 | 0.00 | 0.00 | 0.00 | 48 | 1018.1 |
| 20260509071503 | 11 | 210 | 9.7 | 16.1 | 0.00 | 0.00 | 0.00 | 47 | 1018.1 |
| 20260509071003 | 12 | 209 | 9.7 | 16.1 | 0.00 | 0.00 | 0.00 | 46 | 1018.0 |
| 20260509070503 | 12 | 209 | 9.7 | 16.1 | 0.00 | 0.00 | 0.00 | 46 | 1018.0 |
| 20260509070004 | 12 | 211 | 9.7 | 16.1 | 0.00 | 0.00 | 0.00 | 46 | 1018.0 |
| 20260509065503 | 12 | 214 | 9.7 | 19.3 | 0.00 | 0.00 | 0.00 | 45 | 1017.9 |
| 20260509065003 | 12 | 216 | 8.0 | 19.3 | 0.00 | 0.00 | 0.00 | 45 | 1017.9 |
| 20260509064503 | 12 | 214 | 8.0 | 14.5 | 0.00 | 0.00 | 0.00 | 45 | 1017.8 |
| 20260509064003 | 12 | 213 | 8.0 | 14.5 | 0.00 | 0.00 | 0.00 | 46 | 1017.7 |
| 20260509063503 | 12 | 209 | 9.7 | 12.9 | 0.00 | 0.00 | 0.00 | 46 | 1017.7 |
| 20260509063003 | 12 | 213 | 9.7 | 22.5 | 0.00 | 0.00 | 0.00 | 46 | 1017.7 |
| 20260509062503 | 13 | 213 | 9.7 | 22.5 | 0.00 | 0.00 | 0.00 | 45 | 1017.7 |
| 20260509062003 | 13 | 212 | 9.7 | 19.3 | 0.00 | 0.00 | 0.00 | 45 | 1017.6 |
| 20260509061504 | 13 | 216 | 9.7 | 19.3 | 0.00 | 0.00 | 0.00 | 45 | 1017.7 |
| 20260509061003 | 13 | 219 | 9.7 | 19.3 | 0.00 | 0.00 | 0.00 | 44 | 1017.7 |
| 20260509060503 | 13 | 224 | 8.0 | 17.7 | 0.00 | 0.00 | 0.00 | 43 | 1017.7 |
| 20260509060216 | 13 | 223 | 8.0 | 17.7 | 0.00 | 0.00 | 0.00 | 43 | 1017.7 |
| 20260509055717 | 13 | 214 | 9.7 | 16.1 | 0.00 | 0.00 | 0.00 | 43 | 1017.6 |
| 20260509055003 | 13 | 215 | 11.3 | 19.3 | 0.00 | 0.00 | 0.00 | 41 | 1017.5 |
| 20260509054503 | 14 | 219 | 12.9 | 22.5 | 0.00 | 0.00 | 0.00 | 40 | 1017.5 |
| 20260509054218 | 14 | 220 | 12.9 | 22.5 | 0.00 | 0.00 | 0.00 | 39 | 1017.4 |
| 20260509053503 | 14 | 222 | 12.9 | 24.1 | 0.00 | 0.00 | 0.00 | 39 | 1017.4 |
| 20260509053003 | 14 | 219 | 12.9 | 24.1 | 0.00 | 0.00 | 0.00 | 39 | 1017.3 |
| 20260509052503 | 14 | 217 | 14.5 | 24.1 | 0.00 | 0.00 | 0.00 | 39 | 1017.2 |
| 20260509052003 | 15 | 221 | 12.9 | 29.0 | 0.00 | 0.00 | 0.00 | 39 | 1017.1 |
| 20260509051717 | 14 | 222 | 11.3 | 29.0 | 0.00 | 0.00 | 0.00 | 39 | 1017.1 |
| 20260509051003 | 15 | 223 | 9.7 | 29.0 | 0.00 | 0.00 | 0.00 | 39 | 1017.1 |
| 20260509050503 | 14 | 220 | 9.7 | 16.1 | 0.00 | 0.00 | 0.00 | 40 | 1017.0 |
| 20260509050003 | 15 | 221 | 11.3 | 17.7 | 0.00 | 0.00 | 0.00 | 39 | 1017.0 |
| 20260509045717 | 15 | 220 | 11.3 | 17.7 | 0.00 | 0.00 | 0.00 | 39 | 1017.0 |
| 20260509045003 | 15 | 215 | 12.9 | 20.9 | 0.00 | 0.00 | 0.00 | 38 | 1016.9 |
| 20260509044503 | 15 | 214 | 12.9 | 22.5 | 0.00 | 0.00 | 0.00 | 38 | 1016.8 |
| 20260509044218 | 15 | 217 | 12.9 | 22.5 | 0.00 | 0.00 | 0.00 | 38 | 1016.8 |
| 20260509043503 | 15 | 219 | 12.9 | 25.7 | 0.00 | 0.00 | 0.00 | 37 | 1016.6 |
| 20260509043003 | 15 | 219 | 12.9 | 25.7 | 0.00 | 0.00 | 0.00 | 37 | 1016.6 |
| 20260509042503 | 15 | 218 | 12.9 | 25.7 | 0.00 | 0.00 | 0.00 | 37 | 1016.5 |
| 20260509042003 | 15 | 219 | 11.3 | 22.5 | 0.00 | 0.00 | 0.00 | 37 | 1016.6 |
| 20260509041503 | 15 | 216 | 11.3 | 22.5 | 0.00 | 0.00 | 0.00 | 36 | 1016.5 |
| 20260509041003 | 15 | 208 | 9.7 | 22.5 | 0.00 | 0.00 | 0.00 | 36 | 1016.5 |
| 20260509040503 | 15 | 209 | 8.0 | 20.9 | 0.00 | 0.00 | 0.00 | 36 | 1016.5 |
| 20260509040003 | 15 | 213 | 9.7 | 16.1 | 0.00 | 0.00 | 0.00 | 35 | 1016.5 |
| 20260509035503 | 15 | 212 | 9.7 | 20.9 | 0.00 | 0.00 | 0.00 | 35 | 1016.4 |
| 20260509035003 | 15 | 212 | 8.0 | 20.9 | 0.00 | 0.00 | 0.00 | 34 | 1016.5 |
| 20260509034503 | 15 | 215 | 6.4 | 14.5 | 0.00 | 0.00 | 0.00 | 34 | 1016.3 |
| 20260509034218 | 15 | 215 | 6.4 | 14.5 | 0.00 | 0.00 | 0.00 | 34 | 1016.3 |
| 20260509033503 | 15 | 218 | 6.4 | 14.5 | 0.00 | 0.00 | 0.00 | 33 | 1016.2 |
| 20260509033003 | 16 | 216 | 8.0 | 14.5 | 0.00 | 0.00 | 0.00 | 32 | 1016.2 |
| 20260509032503 | 16 | 217 | 9.7 | 14.5 | 0.00 | 0.00 | 0.00 | 32 | 1016.1 |
| 20260509032003 | 16 | 218 | 9.7 | 16.1 | 0.00 | 0.00 | 0.00 | 32 | 1016.1 |
| 20260509031503 | 16 | 216 | 9.7 | 19.3 | 0.00 | 0.00 | 0.00 | 31 | 1016.0 |
| 20260509031003 | 16 | 214 | 9.7 | 19.3 | 0.00 | 0.00 | 0.00 | 31 | 1015.9 |
| 20260509030503 | 16 | 211 | 11.3 | 16.1 | 0.00 | 0.00 | 0.00 | 31 | 1015.9 |
| 20260509030003 | 16 | 210 | 11.3 | 16.1 | 0.00 | 0.00 | 0.00 | 31 | 1015.8 |
| 20260509025503 | 16 | 211 | 9.7 | 19.3 | 0.00 | 0.00 | 0.00 | 31 | 1015.7 |
| 20260509025003 | 16 | 210 | 8.0 | 19.3 | 0.00 | 0.00 | 0.00 | 30 | 1015.7 |
| 20260509024503 | 16 | 213 | 8.0 | 17.7 | 0.00 | 0.00 | 0.00 | 30 | 1015.6 |
| 20260509024003 | 17 | 215 | 8.0 | 17.7 | 0.00 | 0.00 | 0.00 | 30 | 1015.7 |
| 20260509023718 | 17 | 215 | 8.0 | 14.5 | 0.00 | 0.00 | 0.00 | 29 | 1015.7 |
| 20260509023003 | 17 | 221 | 11.3 | 16.1 | 0.00 | 0.00 | 0.00 | 28 | 1015.6 |
| 20260509022718 | 17 | 223 | 11.3 | 16.1 | 0.00 | 0.00 | 0.00 | 28 | 1015.6 |
| 20260509022003 | 17 | 225 | 12.9 | 20.9 | 0.00 | 0.00 | 0.00 | 27 | 1015.6 |
| 20260509021503 | 17 | 222 | 12.9 | 20.9 | 0.00 | 0.00 | 0.00 | 26 | 1015.6 |
| 20260509021003 | 18 | 219 | 14.5 | 24.1 | 0.00 | 0.00 | 0.00 | 24 | 1015.5 |
| 20260509020503 | 18 | 220 | 14.5 | 30.6 | 0.00 | 0.00 | 0.00 | 23 | 1015.6 |
| 20260509020003 | 18 | 220 | 16.1 | 30.6 | 0.00 | 0.00 | 0.00 | 22 | 1015.5 |
| 20260509015718 | 18 | 220 | 16.1 | 30.6 | 0.00 | 0.00 | 0.00 | 21 | 1015.5 |
| 20260509015003 | 18 | 220 | 14.5 | 27.4 | 0.00 | 0.00 | 0.00 | 19 | 1015.4 |
| 20260509014503 | 18 | 222 | 12.9 | 27.4 | 0.00 | 0.00 | 0.00 | 19 | 1015.4 |
| 20260509014003 | 18 | 222 | 12.9 | 27.4 | 0.00 | 0.00 | 0.00 | 20 | 1015.4 |
| 20260509013503 | 18 | 221 | 14.5 | 22.5 | 0.00 | 0.00 | 0.00 | 19 | 1015.5 |
| 20260509013003 | 18 | 222 | 17.7 | 30.6 | 0.00 | 0.00 | 0.00 | 20 | 1015.4 |
| 20260509012503 | 18 | 224 | 17.7 | 32.2 | 0.00 | 0.00 | 0.00 | 20 | 1015.4 |
| 20260509012003 | 18 | 221 | 17.7 | 32.2 | 0.00 | 0.00 | 0.00 | 21 | 1015.4 |
| 20260509011503 | 19 | 216 | 17.7 | 33.8 | 0.00 | 0.00 | 0.00 | 25 | 1015.4 |
| 20260509011003 | 19 | 220 | 17.7 | 33.8 | 0.00 | 0.00 | 0.00 | 26 | 1015.4 |
| 20260509010503 | 19 | 220 | 17.7 | 30.6 | 0.00 | 0.00 | 0.00 | 26 | 1015.5 |
| 20260509010003 | 19 | 217 | 19.3 | 30.6 | 0.00 | 0.00 | 0.00 | 25 | 1015.3 |
| 20260509005503 | 19 | 219 | 19.3 | 30.6 | 0.00 | 0.00 | 0.00 | 25 | 1015.3 |
| 20260509005003 | 19 | 218 | 19.3 | 32.2 | 0.00 | 0.00 | 0.00 | 25 | 1015.3 |
| 20260509004503 | 19 | 219 | 19.3 | 35.4 | 0.00 | 0.00 | 0.00 | 26 | 1015.3 |
| 20260509004003 | 19 | 221 | 20.9 | 35.4 | 0.00 | 0.00 | 0.00 | 26 | 1015.4 |
| 20260509003503 | 19 | 222 | 22.5 | 33.8 | 0.00 | 0.00 | 0.00 | 25 | 1015.4 |
| 20260509003003 | 19 | 222 | 22.5 | 40.2 | 0.00 | 0.00 | 0.00 | 26 | 1015.4 |
| 20260509002503 | 19 | 221 | 22.5 | 40.2 | 0.00 | 0.00 | 0.00 | 24 | 1015.4 |
| 20260509002003 | 20 | 219 | 19.3 | 38.6 | 0.00 | 0.00 | 0.00 | 24 | 1015.4 |
| 20260509001503 | 20 | 219 | 16.1 | 35.4 | 0.00 | 0.00 | 0.00 | 24 | 1015.3 |
| 20260509001003 | 19 | 223 | 16.1 | 32.2 | 0.00 | 0.00 | 0.00 | 27 | 1015.3 |
| 20260509000503 | 18 | 218 | 16.1 | 25.7 | 0.00 | 0.00 | 0.00 | 28 | 1015.4 |
| 20260509000004 | 18 | 212 | 17.7 | 25.7 | 0.00 | 0.00 | 0.00 | 31 | 1015.4 |
| 20260508235503 | 18 | 211 | 20.9 | 35.4 | 0.00 | 0.00 | 0.00 | 31 | 1015.4 |
| 20260508235003 | 18 | 211 | 20.9 | 35.4 | 0.00 | 0.00 | 0.00 | 31 | 1015.4 |
| 20260508234503 | 18 | 210 | 19.3 | 33.8 | 0.00 | 0.00 | 0.00 | 29 | 1015.3 |
| 20260508234218 | 18 | 212 | 17.7 | 33.8 | 0.00 | 0.00 | 0.00 | 29 | 1015.4 |
| 20260508233503 | 18 | 214 | 16.1 | 30.6 | 0.00 | 0.00 | 0.00 | 31 | 1015.6 |
| 20260508233218 | 18 | 214 | 16.1 | 30.6 | 0.00 | 0.00 | 0.00 | 32 | 1015.6 |
| 20260508232503 | 18 | 221 | 16.1 | 27.4 | 0.00 | 0.00 | 0.00 | 34 | 1015.7 |
| 20260508232003 | 18 | 219 | 14.5 | 25.7 | 0.00 | 0.00 | 0.00 | 34 | 1015.7 |
| 20260508231503 | 18 | 216 | 14.5 | 27.4 | 0.00 | 0.00 | 0.00 | 37 | 1015.8 |
| 20260508231003 | 18 | 223 | 16.1 | 27.4 | 0.00 | 0.00 | 0.00 | 38 | 1015.9 |
| 20260508230503 | 18 | 225 | 16.1 | 33.8 | 0.00 | 0.00 | 0.00 | 38 | 1015.9 |
| 20260508230218 | 18 | 224 | 16.1 | 33.8 | 0.00 | 0.00 | 0.00 | 38 | 1016.0 |
| 20260508225503 | 18 | 220 | 17.7 | 30.6 | 0.00 | 0.00 | 0.00 | 38 | 1015.9 |
| 20260508225003 | 18 | 220 | 17.7 | 29.0 | 0.00 | 0.00 | 0.00 | 37 | 1016.0 |
| 20260508224503 | 18 | 221 | 17.7 | 33.8 | 0.00 | 0.00 | 0.00 | 36 | 1016.0 |
| 20260508224003 | 19 | 223 | 16.1 | 33.8 | 0.00 | 0.00 | 0.00 | 35 | 1016.0 |
| 20260508223503 | 19 | 228 | 14.5 | 32.2 | 0.00 | 0.00 | 0.00 | 33 | 1016.0 |
| 20260508223218 | 19 | 227 | 14.5 | 33.8 | 0.00 | 0.00 | 0.00 | 32 | 1015.9 |
| 20260508222503 | 19 | 224 | 11.3 | 33.8 | 0.00 | 0.00 | 0.00 | 32 | 1016.0 |
| 20260508222003 | 18 | 227 | 11.3 | 27.4 | 0.00 | 0.00 | 0.00 | 31 | 1015.9 |
| 20260508221717 | 18 | 228 | 11.3 | 27.4 | 0.00 | 0.00 | 0.00 | 30 | 1016.0 |
| 20260508221003 | 18 | 227 | 9.7 | 27.4 | 0.00 | 0.00 | 0.00 | 31 | 1015.9 |
| 20260508220503 | 19 | 227 | 9.7 | 20.9 | 0.00 | 0.00 | 0.00 | 31 | 1016.0 |
| 20260508220004 | 19 | 225 | 8.0 | 20.9 | 0.00 | 0.00 | 0.00 | 31 | 1016.0 |
| 20260508215503 | 19 | 224 | 6.4 | 20.9 | 0.00 | 0.00 | 0.00 | 33 | 1016.0 |